This is the latest recevied weather packets stored in our database for station/object NC4M. If no packets are shown the sender has not sent any weather packets the latest 10 day(s).
| Time | Temp. | Humidity | Pressure | Rain* | Wind** | Luminosity | Snow |
|---|---|---|---|---|---|---|---|
| 1778018745 | 7.22° C | 91% | 1010.7 hPa | 1.27 mm | - | 42 W/m² | - |
| 1778018442 | 7.78° C | 91% | 1010.5 hPa | 1.27 mm | - | 33 W/m² | - |
| 1778018141 | 7.78° C | 91% | 1010 hPa | 0 mm | - | 38 W/m² | - |
| 1778017838 | 7.78° C | 90% | 1010.1 hPa | 1.78 mm | - | 32 W/m² | - |
| 1778017536 | 7.78° C | 88% | 1010.3 hPa | 0 mm | - | 39 W/m² | - |
| 1778017232 | 7.78° C | 88% | 1010.3 hPa | 0 mm | - | 45 W/m² | - |
| 1778016930 | 7.78° C | 86% | 1010.1 hPa | 0 mm | - | 30 W/m² | - |
| 1778016626 | 7.78° C | 86% | 1010 hPa | 0 mm | - | 50 W/m² | - |
| 1778016323 | 8.33° C | 84% | 1010.2 hPa | 0 mm | - | 37 W/m² | - |
| 1778016020 | 8.33° C | 82% | 1010.1 hPa | 0 mm | - | 41 W/m² | - |
| 1778015717 | 8.33° C | 80% | 1010.4 hPa | 0 mm | - | 31 W/m² | - |
| 1778015414 | 8.33° C | 80% | 1010.1 hPa | 0 mm | - | 36 W/m² | - |
| 1778015111 | 8.89° C | 78% | 1010 hPa | 0 mm | - | 38 W/m² | - |
| 1778014808 | 8.89° C | 76% | 1010.1 hPa | 0 mm | - | 57 W/m² | - |
| 1778014506 | 8.89° C | 76% | 1010 hPa | 0 mm | - | 59 W/m² | - |
| 1778014202 | 8.89° C | 74% | 1010 hPa | 0 mm | - | 54 W/m² | - |
| 1778013900 | 8.89° C | 74% | 1009.8 hPa | 0 mm | - | 46 W/m² | - |
| 1778013597 | 8.89° C | 78% | 1010.1 hPa | 0 mm | - | 48 W/m² | - |
| 1778013293 | 8.89° C | 76% | 1010 hPa | 0 mm | - | 38 W/m² | - |
| 1778012990 | 9.44° C | 76% | 1009.8 hPa | 0 mm | - | 54 W/m² | - |
| 1778012687 | 8.89° C | 78% | 1009.9 hPa | 0 mm | - | 55 W/m² | - |
| 1778012383 | 9.44° C | 76% | 1009.9 hPa | 0 mm | - | 69 W/m² | - |
| 1778012080 | 9.44° C | 77% | 1010 hPa | 0 mm | - | 67 W/m² | - |
| 1778011778 | 9.44° C | 76% | 1010 hPa | 0 mm | - | 64 W/m² | - |
| 1778011475 | 9.44° C | 79% | 1010.3 hPa | 0 mm | - | 44 W/m² | - |
* Rain latest hour (hover to see other rain measurements)
** Current wind speed in m/s (hover to see current wind gust speed)